Tracking 29892 objects as of 21-Nov-2024
HD Live streaming from Space Station
objects crossing your sky now

YZ-1 R/B

Track YZ-1 R/B now!


NORAD ID: 44544
Int'l Code: 2019-061C
Perigee: 22,035.6 km
Apogee: 22,224.2 km
Inclination: 54.5 °
Period: 798.1 minutes
Semi major axis: 28500 km
RCS: Unknown
Launch date: September 22, 2019
Source: People's Republic of China (PRC)
Launch site: Xichang Space Center, China (XSC)

Note: This is a ROCKET BODY
Your satellite tracking list
Your tracking list is empty




NASA's NSSDC Master Catalog

Two Line Element Set (TLE):
1 44544U 19061C   24325.44324588  .00000002  00000-0  00000-0 0  9994
2 44544  54.4827 206.5240 0033092 250.7300 108.9974  1.80432619 34038
Source of the keplerian elements: AFSPC